Location: Abo�n
(45.4136°N, 4.1330°E)
Time: 20:03:10
(UTC+00:00)

Daily predictions for brighter satellites

Satellite Brightness Start Highest point End
(mag) Time Altitude Azimuth Time Altitude Azimuth Time Altitude Azimuth
Nadezhda 3 Rocket 4.0 17:16:48 10° S 17:23:01 67° E 17:29:18 10° NNE
COSMOS 2406 3.8 17:17:53 10° NNW 17:23:17 39° NE 17:28:38 10° ESE
Cosmos 1934 Rocket 4.4 17:18:52 10° N 17:24:54 44° ENE 17:30:56 10° SSE
Unknown 4.1 17:20:50 10° WSW 17:24:56 59° NNW 17:29:02 10° NE
Unknown 4.1 17:22:27 10° WSW 17:26:32 58° NNW 17:30:39 10° NE
CORIOLIS 4.4 17:23:14 10° S 17:28:34 77° WSW 17:33:58 10° NNW
Cosmos 1825 Rocket 3.5 17:24:25 10° N 17:28:49 81° E 17:33:13 10° S
Abrixas rocket 4.1 17:27:09 10° S 17:28:52 14° SE 17:30:37 10° ESE
Cosmos 1953 2.3 17:24:55 10° S 17:28:57 76° E 17:33:02 10° NNE
Cosmos 1953 Rocket 3.6 17:27:01 10° N 17:31:21 58° ENE 17:35:37 10° SSE
Unknown 4.2 17:28:58 10° WSW 17:33:01 53° NNW 17:37:06 10° NE
Unknown 4.2 17:29:12 10° WSW 17:33:15 53° NNW 17:37:20 10° NE
YAOGAN 6 3.1 17:30:01 10° SE 17:33:26 38° ENE 17:36:51 10° N
Unknown 4.2 17:29:53 10° WSW 17:33:56 53° NNW 17:38:00 10° NE
Unknown 4.0 17:33:08 10° NW 17:35:56 29° NNE 17:38:29 12° E
Cosmos 1758 4.4 17:32:36 10° SSW 17:36:28 50° WNW 17:40:21 10° N
Unknown 4.3 17:33:50 10° W 17:37:52 50° NNW 17:41:56 10° NE
Cosmos 1844 Rocket 2.8 17:32:32 10° SSW 17:38:12 86° WNW 17:43:53 10° NNE
Unknown 4.3 17:34:14 10° W 17:38:17 50° NNW 17:42:20 10° NE
Unknown 4.4 17:36:02 10° W 17:40:04 48° NNW 17:44:06 10° NE
FengYun 1-2 T 4.3 17:34:50 10° SSE 17:40:23 63° ENE 17:45:57 10° N
Unknown 4.4 17:39:23 10° W 17:43:23 47° NNW 17:47:25 10° NE
Cosmos 1606 Rocket 3.6 17:39:10 10° S 17:43:33 89° WNW 17:47:56 10° N
Unknown 4.4 17:39:46 10° W 17:43:46 47° NNW 17:47:48 10° NE
Unknown 4.4 17:40:57 10° W 17:44:57 47° NNW 17:48:59 10° NE
Unknown 2.6 17:43:00 10° NW 17:45:37 56° NNE 17:47:38 15° ESE
Envisat 3.0 17:42:36 10° SSE 17:47:42 88° ENE 17:52:48 10° NNW
Unknown 4.4 17:44:07 10° W 17:48:07 46° NNW 17:52:06 10° NE
Meteor 1-16 Rocket 4.1 17:43:08 10° S 17:48:39 65° E 17:54:01 10° NNE
BREEZE-M DEB (TANK) 3.8 17:44:23 10° SW 17:49:25 32° SSE 17:51:13 16° E
Cosmos 1908 3.8 17:50:03 10° SSE 17:53:38 35° E 17:57:13 10° NNE
Cosmos 1461 4.1 17:52:49 10° NNW 17:56:09 24° NE 17:58:04 17° E
Lacrosse 5 rocket 2.3 17:54:58 10° WNW 17:58:34 43° SW 18:02:20 10° SSE
Cosmos 1356 3.4 17:55:33 10° S 17:58:55 58° E 18:02:19 10° NNE
ASTEX 1 3.3 17:54:06 10° N 17:59:05 81° E 18:04:03 10° S
Cosmos 2278 Rocket 2.7 17:54:32 10° S 17:59:39 36° ESE 18:04:49 10° NE
Cosmos 1939 Rocket 3.5 17:56:39 10° SE 18:00:14 33° ENE 18:03:53 10° N
Cosmos 1844 4.1 17:58:36 10° SW 18:04:18 70° WNW 18:10:05 10° NNE
ATLAS 5 CENTAUR R/B 3.2 18:01:17 10° WSW 18:05:15 34° NW 18:09:41 10° NNE
Cosmos 489 Rocket 4.4 18:02:35 10° S 18:08:44 68° ESE 18:14:55 10° NNE
SKYMED 2 3.7 18:04:29 10° N 18:08:50 76° WNW 18:13:09 10° SSW
Cosmos 1328 3.7 18:05:55 10° N 18:09:56 85° E 18:13:53 10° S
YAOGAN 1 2.5 18:08:01 10° SSE 18:12:20 90° ESE 18:16:42 10° NNW
Falcon 9 debris 4.4 18:14:55 10° NW 18:17:57 28° NNE 18:18:58 24° NE
Cosmos 292 Rocket 3.7 18:14:39 10° SSW 18:19:24 88° ESE 18:24:11 10° NNE
CSL-04 Rocket 3.9 18:17:02 10° S 18:22:35 76° WSW 18:28:07 10° NNW
CZ-4 R/B 2.3 18:19:05 10° S 18:23:08 52° W 18:27:16 10° NNW
USA 238 DEB 4.1 18:18:08 10° S 18:24:14 39° ESE 18:28:53 17° ENE
USA 238 4.1 18:18:16 10° S 18:24:21 39° ESE 18:28:55 18° ENE
Unknown 4.4 18:25:01 10° NW 18:28:09 29° NNE 18:28:48 27° NE
Shenzhou-11 Module 2.2 18:27:01 10° WSW 18:29:41 47° S 18:29:46 47° S
Ariane Rocket 2.9 18:25:16 10° SSE 18:30:17 65° ENE 18:35:22 10° N
Cosmos 1726 3.0 18:26:50 10° SSW 18:30:24 50° WNW 18:33:59 10° N
NOAA 11 4.1 18:25:01 10° SSE 18:30:26 77° ENE 18:35:53 10° N
Lacrosse 5 2.5 18:26:17 10° NW 18:31:05 41° NNE 18:32:47 31° ENE
Cosmos 1242 Rocket 4.0 18:30:13 10° NNW 18:33:41 39° W 18:37:07 10° SSW
CZ-2D R/B 3.3 18:34:19 10° S 18:38:09 81° WSW 18:42:03 10° NNW
ARGOS 4.1 18:38:25 27° ENE 18:38:25 27° ENE 18:42:46 10° N
Cosmos 2058 Rocket 4.3 18:36:18 10° SSW 18:40:26 42° WNW 18:44:36 10° N
Cosmos 1833 Rocket 2.6 18:35:28 10° NNW 18:41:05 70° ENE 18:44:18 26° SE
SL-4 R/B 4.5 18:46:10 10° W 18:48:08 14° SW 18:50:02 10° SSW
SPOT 3 Rocket 4.0 18:48:34 38° ENE 18:48:38 38° ENE 18:53:25 10° N
NOSS 3-2 (A) 3.6 18:44:33 10° S 18:49:57 45° ESE 18:51:20 39° E
HJ-1C 3.4 18:51:33 72° NNW 18:51:33 72° NNW 18:54:37 10° NNW
Cosmos 1777 Rocket 4.4 18:46:30 10° NNW 18:51:40 64° WSW 18:56:47 10° S
Cosmos 1459 Rocket 4.0 18:50:45 10° N 18:56:50 55° ENE 18:58:57 38° SE
Cosmos 2058 3.8 18:55:25 10° N 18:58:09 36° NNE 18:58:09 36° NNE
Gbstr 26 Del rocket 4.1 18:55:13 10° WNW 19:01:32 81° NNE 19:04:05 44° ESE
Cosmos 2082 Rocket 2.1 18:57:29 10° NNW 19:03:14 73° ENE 19:04:38 51° SE
Abrixas rocket 3.9 19:01:18 10° WSW 19:02:52 27° WSW 19:02:52 27° WSW
SJ 16-02 3.5 19:01:19 10° N 19:02:25 15° NNE 19:02:25 15° NNE
Resurs 01 Rocket 4.0 19:09:04 12° NNE 19:09:04 12° NNE 19:09:27 10° NNE
H-2A R/B 2.5 19:06:53 45° NE 19:06:53 45° NE 19:11:25 10° N
Cosmos 1727 Rocket 4.0 19:01:31 10° SSW 19:07:41 78° W 19:13:54 10° N
NOSS 3-2 (C) 4.4 19:07:39 10° S 19:10:26 27° SSE 19:10:26 27° SSE
Cosmos 1802 Rocket 4.0 19:10:28 10° N 19:16:53 65° E 19:17:48 58° ESE
Cosmos 2173 Rocket 3.8 19:13:52 10° N 19:20:11 82° E 19:22:02 48° SSE
SJ-11-01 4.3 19:22:27 76° WSW 19:22:34 76° WSW 19:27:17 10° NNW
In-Cosmos 22 Rocket 4.1 19:25:25 10° N 19:30:27 78° N 19:30:27 78° N
Cosmos 1898 Rocket 4.2 19:28:50 10° NNW 19:32:33 44° N 19:32:33 44° N
CZ-2C R/B 4.1 19:37:01 41° NNE 19:37:01 41° NNE 19:40:56 10° N
Cosmos 1461 4.2 19:31:29 10° NW 19:34:29 39° W 19:34:29 39° W
ADEOS Rocket 3.3 19:28:43 10° NNE 19:36:30 75° ESE 19:43:44 10° S
Cosmos 1725 Rocket 4.4 19:32:26 10° N 19:37:16 50° NNE 19:37:16 50° NNE
Cosmos 1000 Rocket 4.4 19:33:35 10° S 19:39:46 82° W 19:46:03 10° N
Cosmos 2100 Rocket 4.2 19:34:53 10° NNW 19:41:02 66° W 19:43:19 39° SSW
Cosmos 2278 Rocket 3.5 19:38:25 10° WSW 19:43:42 38° NW 19:49:01 10° NNE
ATLAS 3B R/B 4.5 19:44:15 10° SSW 19:45:35 16° SSW 19:45:35 16° SSW
ATLAS 5 CENTAUR R/B 4.5 19:49:32 10° NW 19:51:33 12° NNW 19:53:19 11° N
Cosmos 2016 Rocket 4.2 19:57:38 10° NNW 20:03:18 66° WNW 20:03:18 66° WNW
Lacrosse 5 3.6 20:09:17 10° WNW 20:12:01 30° WNW 20:12:01 30° WNW
USA 238 DEB 4.3 20:08:29 10° WSW 20:15:01 52° NW 20:16:23 45° N
USA 238 4.3 20:08:35 10° WSW 20:15:07 52° NW 20:16:26 46° N
ARGOS 4.5 20:19:56 36° NW 20:19:56 36° NW 20:23:31 10° NNW
H-2A R/B 4.3 20:47:31 22° WNW 20:47:31 22° WNW 20:50:19 10° NW
Cosmos 2082 Rocket 4.5 20:42:56 10° WNW 20:46:31 18° W 20:46:31 18° W
